SCP
0 0 0 0 0 0 0 0 0 0 0 0 0 0 0 0 0 0 0 0 0 0 0 0 0 0 0 0 0 0 0 0 0 0 0 0 0 0 0 0 0 0 0 0 0 0 0 0 0 0 0 -0 -0 -0
0 0 0 0 0 0 0 0 0 0 0 0 0 0 0 0 0 0 0 0 0 0 0 0 0 0 0 0 0 0 0 0 0 0 0 0 0 0 -0 0 0 0 0 0 0 0 0 0 0 0 -0 -0 0 -0
0 0 0 0 0 0 0 0 0 0 0 0 0 0 0 0 0 0 0 0 0 0 0 0 0 0 0 0 0 0 0 0 0 0 0 0 0 0 0 0 0 0 0 0 0 0 0 0 0 -0 -0 -0 -0 0
0 0 0 0 0 0 0 0 0 0 0 0 0 0 0 0 0 0 0 0 0 0 0 0 0 0 -0 0 0 0 0 0 0 0 0 0 0 0 0 0 -0 0 0 0 0 0 0 0 -0 -0 -0 0 0 0
0 0 0 0 0 0 0 0 0 0 0 0 0 0 0 0 0 0 0 0 0 0 0 0 0 0 0 0 0 0 0 0 0 0 0 0 0 0 0 0 -0 0 0 0 0 0 0 0 -0 0 -0 -0 -0 0
0 0 0 0 0 0 0 0 0 0 0 0 0 0 0 0 0 0 0 0 0 0 0 0 0 0 0 0 0 0 0 0 0 0 0 0 0 0 0 0 0 0 0 0 0 0 0 -0 0 0 -0 -0 0 0
0 0 0 0 0 0 0 0 -0 -0 0 0 0 0 0 0 0 0 0 0 0 0 0 0 0 0 0 0 0 0 0 0 0 0 0 0 0 0 0 0 0 0 0 0 0 0 0 -0 -0 0 -0 -0 0 0
0 0 0 0 0 0 0 0 0 -0 -0 0 0 0 0 0 0 0 0 0 0 0 0 0 0 0 -0 0 0 0 0 0 0 0 0 0 0 0 0 -0 0 0 0 0 0 0 0 0 -0 -0 -0 -0 0 0
0 0 0 0 0 0 0 0 0 -0 -0 0 0 0 0 0 0 0 0 0 0 0 0 0 0 0 0 -0 -0 0 0 0 0 0 0 0 0 0 0 0 0 0 0 0 0 0 -0 0 0 -0 0 0 0 0
0 0 0 0 0 0 0 0 -0 0 -0 -0 0 0 0 0 0 0 0 0 0 0 0 0 0 0 0 0 -0 0 -0 0 0 0 0 0 0 0 0 0 0 0 0 0 0 0 -0 -0 -0 -0 -0 0 0 0
0 0 0 0 0 0 0 0 0 0 0 0 0 0 0 0 0 0 0 0 0 0 0 0 0 0 0 0 0 0 -0 0 0 0 0 0 0 0 0 0 0 0 0 0 0 0 -0 0 0 0 0 0 0 0
0 0 0 0 0 0 0 0 0 0 0 0 0 0 0 0 0 0 0 0 0 0 -0 0 0 0 0 -0 -0 -0 0 -0 -0 0 0 0 0 -0 -0 0 0 0 0 0 0 0 0 0 0 0 0 0 0 0
0 0 0 0 0 0 0 -0 0 0 0 0 0 0 0 0 0 0 0 0 0 0 -0 -0 0 0 0 0 -0 -0 -0 -0 0 -0 -0 -0 -0 0 -0 0 0 0 0 0 0 0 0 0 0 -0 0 0 0 0
0 0 0 0 0 0 -0 0 0 0 0 0 0 0 0 0 0 0 0 0 0 0 0 0 0 0 0 0 0 0 -0 -0 -0 -0 -0 -0 -0 0 -0 0 0 0 0 0 0 0 0 0 0 0 -0 0 0 0
0 0 0 0 0 -0 -0 0 0 0 0 0 0 0 0 0 0 0 0 0 0 0 0 0 0 0 0 0 -0 -0 -0 -0 -0 0 0 0 -0 -0 -0 0 0 0 0 0 0 -0 -0 -0 -0 0 0 -0 0 0
0 0 0 0 0 0 0 0 0 0 0 0 0 0 0 0 0 0 0 0 0 0 0 0 -0 0 0 0 0 0 0 0 0 0 -0 0 -0 -0 0 -0 -0 0 0 0 0 0 -0 -0 -0 -0 -0 0 -0 0
0 0 0 0 0 0 0 0 0 0 0 0 0 0 0 0 0 0 0 0 0 0 0 0 -0 -0 0 0 0 0 0 0 0 0 0 0 0 -0 -0 -0 -0 0 0 0 0 0 -0 -0 -0 -0 -0 -0 -0 -0
0 0 0 0 0 0 0 0 0 0 0 0 0 0 0 0 0 0 0 0 0 0 0 -0 0 -0 -0 0 0 0 0 0 0 0 0 0 0 -0 -0 -0 -0 -0 0 0 0 0 0 -0 0 -0 -0 -0 -0 -0
0 0 0 0 0 0 0 0 0 0 0 0 0 0 0 0 0 0 0 0 0 0 0 -0 -0 -0 -0 -0 0 0 0 -0 -0 0 0 0 0 0 -0 -0 -0 -0 -0 -0 0 0 0 -0 0 0 -0 -0 -0 -0
0 0 0 0 0 0 0 0 0 0 0 0 0 0 0 0 0 0 -0 0 0 0 0 -0 0 0 -0 -0 -0 -0 -0 -0 -0 -0 0 0 0 0 0 0 0 -0 0 -0 0 -0 0 -0 -0 -0 0 0 -0 -0
0 0 0 0 0 0 0 0 0 0 0 0 0 0 0 0 0 0 0 0 0 0 0 0 0 0 0 0 -0 -0 -0 -0 -0 -0 0 0 0 0 0 0 0 0 0 -0 0 -0 0 0 0 -0 -0 -0 -0 -0
0 0 0 0 0 0 0 0 0 0 0 0 0 0 0 0 0 0 0 0 0 0 0 0 0 0 0 0 0 0 -0 0 0 0 0 0 0 0 0 0 0 -0 0 -0 0 -0 -0 0 0 -0 -0 0 0 0
0 0 0 0 0 0 0 0 0 0 0 0 0 0 0 0 0 0 0 0 0 0 0 0 0 0 0 -0 -0 -0 -0 -0 0 0 0 0 0 0 0 0 0 0 0 0 0 0 -0 -0 0 -0 -0 -0 0 0
0 0 0 0 0 0 0 0 0 0 0 0 0 0 0 0 0 0 0 0 0 0 0 0 0 0 0 0 -0 -0 -0 -0 0 0 0 0 0 0 0 0 0 0 0 0 0 0 -0 0 -0 0 -0 -0 -0 0
0 0 0 0 0 0 0 0 0 0 0 0 0 0 0 0 0 0 0 0 0 0 0 0 0 0 0 -0 -0 -0 -0 -0 0 0 0 0 0 0 0 0 0 0 0 0 0 0 0 0 0 0 -0 -0 -0 -0
0 0 0 0 0 0 0 0 0 0 0 0 0 0 0 0 0 0 0 0 0 0 0 0 0 0 0 0 -0 -0 0 -0 -0 0 -0 -0 0 0 0 0 0 0 0 0 0 0 0 0 0 0 0 0 0 -0
0 0 0 0 0 0 0 0 0 0 0 0 0 0 0 0 0 0 0 0 0 0 0 0 0 0 0 0 -0 -0 -0 -0 0 -0 -0 -0 -0 -0 0 0 0 0 0 0 0 0 0 0 0 0 0 0 0 0
0 0 0 0 0 0 0 0 0 0 0 0 0 0 0 0 0 0 0 0 0 0 0 0 0 0 0 0 0 -0 -0 -0 0 0 -0 -0 -0 0 0 0 0 0 0 0 0 0 0 0 0 0 0 0 0 0
0 0 0 0 0 0 0 0 0 0 0 0 0 0 0 0 0 0 0 0 0 0 0 0 0 0 0 0 0 -0 -0 -0 -0 -0 -0 0 0 0 0 0 0 0 0 0 0 0 0 0 0 0 0 0 0 0
0 0 0 0 0 0 0 0 0 0 0 0 0 0 0 0 0 0 0 0 0 0 0 0 0 0 0 0 0 0 0 -0 -0 -0 -0 0 0 0 0 0 0 0 0 0 0 0 0 0 0 0 0 0 0 0
0 0 0 0 0 0 0 0 0 0 0 0 0 0 0 0 0 0 0 0 0 0 0 0 0 0 0 0 0 0 0 -0 -0 -0 -0 -0 0 0 0 0 0 0 0 0 0 0 0 0 0 0 0 0 0 0
0 0 0 0 0 0 -0 0 0 0 0 0 0 0 0 0 0 0 0 0 0 0 0 0 0 0 0 0 0 0 0 0 -0 -0 -0 0 0 0 0 0 0 -0 0 0 0 0 0 0 0 0 0 0 0 0
0 0 0 0 0 0 0 0 0 0 0 0 0 0 0 0 0 0 0 0 0 0 0 0 0 0 0 0 0 0 0 0 0 -0 0 0 -0 -0 -0 0 0 0 0 0 0 0 0 0 0 0 0 0 0 0
Wind_Speed_500mb
36 39 38 40 42 42 43 47 44 43 44 46 45 43 40 35 30 31 19 20 19 31 67 67 52 45 41 32 8 17 20 14 9 5 4 5 5 7 8 10 7 5 5 6 5 6 11 8 20 4 11 46 44 40
38 39 38 39 40 39 42 46 44 44 44 46 47 44 40 35 24 26 35 12 25 40 56 88 88 74 70 80 56 21 11 11 8 6 7 7 6 7 11 7 12 4 7 5 8 9 5 28 21 25 54 45 31 48
39 38 36 38 40 37 41 45 44 45 45 47 47 44 40 36 27 28 37 31 24 40 63 30 33 42 20 22 24 33 22 22 14 11 5 4 6 5 5 8 14 7 9 7 6 11 14 21 22 45 39 42 46 49
41 39 36 36 36 37 42 45 45 45 46 48 48 45 43 39 37 39 45 34 19 21 13 22 27 58 40 28 36 49 47 18 22 16 9 4 5 8 7 16 24 25 10 7 10 19 16 14 36 43 38 30 51 46
41 39 38 36 36 38 42 45 46 45 47 48 48 45 43 41 44 45 37 17 12 22 10 36 80 5 27 24 48 41 44 43 31 8 7 6 8 8 10 12 15 5 7 6 5 10 10 20 39 34 31 43 43 42
43 39 39 35 36 39 44 44 47 45 48 46 45 44 43 43 39 27 10 20 12 29 13 9 30 46 13 10 31 48 43 34 27 9 8 10 16 10 8 7 8 43 39 14 6 12 17 47 33 39 19 44 33 32
45 36 40 33 35 39 41 44 45 45 46 44 41 43 43 33 24 6 9 5 11 10 8 13 14 18 38 16 23 37 41 27 22 9 11 9 17 16 8 14 19 42 30 10 5 13 19 42 38 17 34 33 27 25
45 39 37 31 33 37 39 44 44 44 44 39 37 34 31 15 8 8 10 13 24 19 9 6 10 16 33 9 2 8 17 28 19 10 8 9 10 15 8 20 23 34 16 15 14 15 22 39 25 14 40 25 30 28
45 40 36 30 30 35 39 43 43 43 41 35 25 31 19 5 4 8 16 12 10 12 7 6 6 8 21 10 14 5 16 6 9 6 8 9 7 9 10 6 13 19 17 22 18 30 37 35 30 18 40 30 33 33
44 40 35 28 29 35 37 39 40 41 38 25 15 5 3 6 11 23 5 2 5 5 5 7 11 9 29 22 7 11 10 4 5 11 11 8 7 23 20 17 16 4 17 20 26 30 33 38 31 23 30 27 26 28
42 39 31 27 28 33 35 33 33 37 31 15 9 7 14 9 8 8 10 9 8 4 7 11 16 11 17 8 6 9 6 6 4 2 5 5 2 9 7 5 4 13 19 21 16 25 28 32 27 32 21 27 31 32
41 36 26 26 29 30 30 27 27 26 21 19 12 10 11 5 8 6 5 4 1 2 7 9 13 13 13 12 8 10 7 5 6 8 6 2 15 45 35 22 14 15 17 21 16 26 32 32 28 31 19 25 31 30
41 32 29 28 27 27 24 19 20 20 12 2 5 3 5 7 1 5 6 3 5 5 11 31 14 7 6 6 9 5 8 7 28 4 6 5 37 44 10 16 15 12 17 21 22 25 28 31 30 33 31 27 22 27
42 35 32 28 24 24 15 14 16 9 2 4 9 6 6 6 4 5 11 9 7 23 33 37 24 11 7 4 4 7 8 7 7 7 2 6 49 29 2 8 7 13 20 24 25 26 27 30 31 27 35 34 31 32
42 35 32 24 21 16 9 10 9 5 3 7 6 4 6 14 24 27 29 32 22 33 39 30 34 22 6 4 4 6 6 6 10 9 10 36 53 50 33 13 10 14 18 19 20 22 25 26 26 30 30 33 40 41
37 32 26 18 16 8 7 5 8 7 4 6 9 8 16 14 17 23 26 29 32 26 30 26 6 11 7 6 3 9 10 9 7 12 34 46 60 51 35 29 37 15 14 21 19 21 19 23 23 27 35 37 33 42
34 27 17 14 7 4 7 13 7 6 6 5 12 19 14 14 16 21 17 22 26 29 3 8 10 2 8 5 8 9 9 8 35 52 51 57 59 60 48 46 31 17 7 11 20 15 15 15 18 18 24 35 41 36
30 21 16 9 12 12 13 9 5 7 11 20 17 8 11 11 14 24 27 31 27 22 28 10 7 1 8 8 6 12 43 44 45 51 60 57 50 65 57 53 42 24 11 4 9 10 10 11 11 23 21 26 34 37
30 23 14 15 21 14 10 8 8 8 19 10 10 6 8 11 12 17 20 23 20 10 9 15 12 7 6 9 25 40 48 45 52 57 56 53 56 62 67 55 52 38 19 10 9 7 13 15 15 22 22 22 22 23
26 25 15 16 25 10 7 6 10 8 8 3 6 8 6 5 18 22 24 23 22 15 16 8 6 12 17 33 38 41 39 48 54 57 56 60 56 57 50 56 52 34 23 12 6 5 8 20 18 15 15 20 19 21
29 22 17 19 22 11 7 6 14 11 7 7 8 4 2 19 21 23 23 20 20 10 7 7 14 19 24 26 31 35 39 48 47 43 48 55 49 51 56 53 56 53 49 21 12 13 11 18 11 18 22 17 17 24
21 20 19 20 9 11 9 11 7 2 6 12 10 12 8 9 12 14 14 14 10 7 6 12 20 22 24 26 31 35 43 52 47 46 45 40 31 49 47 45 58 56 42 28 19 19 9 5 9 21 17 7 20 27
28 22 12 12 9 13 12 12 11 13 8 8 5 6 8 8 10 18 8 8 7 9 10 14 17 16 17 22 27 36 49 51 52 46 41 37 33 33 33 31 43 49 46 36 30 32 16 14 11 22 13 6 19 23
23 13 9 12 16 8 10 15 7 2 3 4 3 7 4 10 14 8 5 7 7 6 11 15 17 20 20 25 30 40 52 54 47 48 46 37 38 44 36 30 25 29 32 41 23 20 20 11 12 24 17 11 13 26
9 11 8 10 16 11 11 12 14 6 9 8 9 4 8 11 5 3 7 10 6 7 10 14 16 20 26 31 32 39 44 52 49 43 46 41 39 44 42 39 37 38 35 26 17 17 12 10 20 16 20 28 16 27
8 13 14 18 9 10 12 11 16 10 8 9 10 7 6 8 5 6 5 10 6 6 9 13 16 21 24 27 33 40 43 44 51 41 36 42 44 44 49 50 51 50 48 35 25 20 15 13 9 34 22 25 30 24
8 12 15 18 17 22 9 16 22 9 9 9 7 8 5 8 5 7 16 7 7 5 6 9 11 17 21 22 25 28 31 33 35 38 25 29 38 48 47 51 52 49 47 41 34 25 19 18 9 8 28 27 27 41
14 10 16 28 21 27 6 6 8 11 9 11 10 8 9 4 5 12 12 16 10 7 6 7 11 14 16 17 21 27 34 41 43 35 25 32 39 51 50 52 46 42 42 43 34 32 25 25 25 17 15 49 33 41
14 20 19 17 7 4 11 8 12 15 8 19 7 6 8 9 23 21 16 15 10 9 8 9 11 14 14 16 22 27 32 44 53 56 57 57 62 64 60 59 59 53 47 47 41 28 27 29 25 33 29 31 49 38
13 22 12 18 11 8 11 18 21 22 23 26 29 41 38 32 22 17 15 10 10 11 9 8 9 13 17 22 22 26 29 34 43 47 51 49 50 53 55 56 59 60 54 49 49 40 17 13 20 23 30 31 46 38
13 30 22 16 17 21 26 30 28 35 39 40 36 45 39 27 21 18 18 13 10 10 8 8 8 13 15 19 23 27 33 29 35 43 48 41 41 44 48 50 51 56 55 54 52 52 43 25 14 8 19 25 28 38
22 28 27 9 15 31 32 34 33 34 37 44 46 45 32 19 10 8 5 11 11 11 12 10 8 9 11 13 14 17 22 28 35 43 47 39 40 41 43 44 45 48 50 51 53 53 51 45 36 24 11 7 22 30
29 30 31 26 19 22 18 15 6 12 32 25 29 31 17 14 9 10 9 4 9 11 9 7 7 9 9 8 11 11 18 21 27 35 35 29 33 37 38 40 40 41 43 46 49 52 54 52 43 38 34 24 11 6
Wind_Direction_500mb
288 297 308 314 316 319 327 330 329 332 335 336 336 336 332 331 337 332 323 230 273 277 282 281 288 283 298 290 269 304 331 6 303 309 314 323 326 312 329 332 259 192 242 233 226 244 278 198 341 252 315 302 296 307
285 294 303 310 313 316 326 328 325 329 333 332 332 334 332 329 327 319 313 290 271 275 263 287 290 284 266 256 259 254 239 345 291 309 14 314 327 294 330 285 318 291 196 241 225 234 254 319 284 298 302 299 303 304
281 288 296 305 310 315 324 325 322 325 329 328 328 330 328 322 315 303 294 311 325 292 302 280 283 325 285 251 254 236 239 226 225 250 286 279 274 347 289 268 287 297 150 219 209 250 246 299 304 309 309 295 318 311
276 284 291 297 307 314 321 324 320 324 327 326 325 326 326 321 317 310 303 302 267 282 288 287 302 296 273 266 236 226 233 218 230 271 277 246 252 244 263 284 284 267 173 232 239 260 302 254 319 324 317 315 322 319
272 280 285 291 303 312 319 322 318 322 325 325 323 323 324 320 317 316 323 345 224 235 292 297 311 346 297 298 213 216 226 235 247 221 224 252 246 276 245 257 258 68 299 237 257 157 248 319 340 341 321 337 326 326
267 273 280 286 300 312 317 321 317 322 324 323 322 320 319 318 318 333 327 26 233 244 275 306 297 300 350 256 221 212 224 228 222 207 215 237 240 250 268 278 277 16 313 286 35 352 339 340 340 337 332 337 334 334
262 267 272 283 296 311 315 318 317 323 323 323 321 316 317 317 313 243 251 276 331 295 278 294 285 298 330 208 206 219 213 211 213 219 222 240 259 244 252 256 276 310 289 277 86 1 348 347 336 336 358 345 347 344
263 265 268 277 292 308 315 316 320 325 324 323 318 316 321 336 5 360 9 296 278 275 271 285 281 286 12 331 359 258 204 197 211 233 227 230 257 221 255 261 283 288 281 135 84 16 348 335 343 17 359 355 355 3
258 261 263 271 291 306 316 315 324 326 325 326 315 306 291 211 254 290 295 306 270 236 293 269 296 297 346 332 289 236 185 195 221 222 224 212 223 229 232 20 314 329 61 131 52 15 7 355 7 17 12 6 4 5
253 253 255 269 290 305 316 319 327 325 328 333 347 349 157 141 340 324 335 195 217 214 246 277 277 276 312 304 294 328 192 220 232 219 198 211 248 279 251 263 216 81 77 40 40 12 355 6 9 26 17 10 7 10
247 248 250 268 289 304 312 321 327 328 335 8 346 308 314 282 271 245 210 199 172 227 221 250 259 280 291 295 290 260 269 217 258 124 244 225 169 267 194 161 4 77 71 55 45 30 28 15 20 9 21 21 25 29
245 241 249 269 286 302 309 322 325 333 340 326 324 336 1 311 254 286 254 148 238 196 228 260 280 294 288 312 305 310 272 288 264 190 237 46 345 337 328 160 107 93 72 52 62 38 30 31 28 14 26 19 24 35
238 231 248 263 282 297 304 315 321 328 339 9 17 290 242 261 307 257 321 208 312 344 322 306 292 268 320 316 287 302 279 264 323 245 51 339 310 318 354 120 119 88 79 55 76 48 40 36 24 27 36 19 24 36
225 231 248 259 277 286 296 308 314 320 188 254 225 288 229 196 240 315 11 68 353 333 329 316 316 268 208 220 315 287 300 303 303 10 30 307 355 5 276 133 347 79 71 69 79 59 47 48 43 29 27 36 41 42
224 235 246 258 274 272 286 303 306 194 99 269 279 249 233 351 342 3 351 355 18 347 323 315 299 267 176 148 194 291 290 311 23 357 332 2 354 12 347 334 83 13 113 74 70 68 56 55 56 46 32 36 55 51
223 236 246 255 245 245 268 231 146 94 269 257 229 269 291 337 352 359 358 339 347 333 324 307 307 342 42 336 259 14 4 31 347 308 356 9 15 19 35 356 342 354 117 107 81 81 61 64 71 58 44 42 61 65
221 225 231 217 198 190 160 138 130 226 268 252 239 253 285 350 348 330 347 342 344 343 339 302 12 125 305 20 25 16 336 312 328 340 346 5 10 6 2 4 359 349 41 86 101 95 86 63 85 71 59 56 50 68
210 214 197 176 175 145 146 164 219 217 236 235 254 296 352 320 339 24 10 1 358 348 336 351 263 94 25 22 353 319 318 339 345 345 340 348 358 3 4 10 0 355 304 194 107 92 100 96 79 82 75 71 58 57
203 191 178 182 169 157 192 210 218 259 224 286 275 295 322 3 42 39 9 347 345 321 343 15 45 41 2 329 317 316 327 348 340 334 333 346 351 353 358 3 13 351 319 206 132 120 84 105 91 108 99 95 97 66
187 177 164 172 172 169 203 200 198 256 261 310 257 269 353 19 72 47 29 19 43 53 50 50 31 327 307 323 329 327 349 347 342 335 334 334 338 350 354 351 357 360 346 312 150 177 101 112 126 107 93 95 99 86
182 193 194 184 193 205 255 210 203 218 261 265 288 291 168 89 77 61 40 54 54 47 82 52 346 335 338 353 350 352 346 346 342 336 327 324 322 342 346 353 359 7 14 10 262 303 3 177 124 127 136 123 126 115
156 159 153 165 185 207 252 233 248 92 180 246 251 245 126 120 127 114 83 61 72 68 72 9 352 348 353 359 355 356 350 346 346 349 351 350 344 348 346 350 359 358 2 359 328 334 300 111 144 166 179 127 130 136
153 168 160 194 217 203 252 206 197 206 215 195 188 300 144 138 125 117 95 98 103 64 8 353 358 356 356 353 357 357 358 2 3 10 8 10 8 3 0 3 -0 360 11 15 353 349 309 225 193 200 193 150 146 144
145 166 202 202 199 223 210 191 214 357 258 201 231 223 160 126 146 102 96 99 103 34 8 8 7 7 9 4 3 357 0 6 9 21 12 6 6 5 3 358 348 343 346 357 18 359 318 231 247 191 212 191 162 160
168 208 198 227 202 218 202 191 156 216 217 170 201 203 167 140 76 53 124 120 101 46 15 9 9 7 6 4 0 360 3 6 5 12 15 23 14 8 16 22 24 18 5 348 354 6 1 316 218 207 209 210 199 172
206 210 199 199 223 203 205 178 190 164 190 194 205 204 115 108 128 127 87 132 112 48 26 12 10 5 3 0 359 2 5 1 0 16 17 8 18 13 12 13 10 5 5 358 340 316 320 338 295 238 228 204 215 191
228 222 208 221 214 209 204 181 157 158 198 182 190 151 150 143 136 101 146 160 130 74 39 12 6 0 357 360 1 357 354 2 9 3 8 22 18 18 23 13 4 356 358 355 343 328 293 284 306 230 224 226 218 204
233 237 216 218 223 210 192 138 165 172 187 213 162 141 137 100 97 147 157 135 132 108 59 30 18 6 4 5 3 359 355 359 11 21 33 32 26 19 22 17 8 3 1 0 350 338 312 271 250 218 199 228 224 203
226 222 226 196 190 147 185 173 200 202 186 147 127 82 90 92 131 128 139 141 126 103 70 41 20 22 20 13 9 9 4 355 3 13 16 11 10 10 11 11 8 9 4 1 2 343 320 292 261 236 236 224 214 206
240 206 206 184 147 194 182 190 231 128 139 125 107 105 102 112 113 126 122 114 96 84 66 53 34 23 16 16 12 11 15 356 354 7 6 3 358 359 5 4 5 6 8 6 7 4 338 297 253 241 232 231 217 217
216 199 198 190 189 190 197 201 136 125 114 115 130 129 135 125 115 104 96 86 116 97 78 70 49 30 16 14 12 9 3 359 344 348 351 354 0 4 7 5 4 7 10 13 15 17 15 6 351 274 231 232 233 232
223 215 189 187 195 207 226 163 137 129 124 116 119 129 133 140 121 120 102 121 109 81 64 50 27 5 12 7 4 8 3 343 345 346 342 350 358 2 6 5 5 8 13 19 22 25 26 26 25 18 356 269 230 224
217 210 190 204 197 164 148 131 83 118 135 133 153 160 154 138 116 141 134 67 129 122 85 45 21 355 14 359 345 352 359 357 339 334 343 358 359 357 1 8 5 8 14 22 27 30 33 36 39 38 37 30 12 247
Wind_Speed_850mb
36 39 38 40 42 42 43 47 44 43 44 46 45 43 40 35 30 31 19 20 19 31 67 67 52 45 41 32 8 17 20 14 9 5 4 5 5 7 8 10 7 5 5 6 5 6 11 8 20 4 11 46 44 40
38 39 38 39 40 39 42 46 44 44 44 46 47 44 40 35 24 26 35 12 25 40 56 88 88 74 70 80 56 21 11 11 8 6 7 7 6 7 11 7 12 4 7 5 8 9 5 28 21 25 54 45 31 48
39 38 36 38 40 37 41 45 44 45 45 47 47 44 40 36 27 28 37 31 24 40 63 30 33 42 20 22 24 33 22 22 14 11 5 4 6 5 5 8 14 7 9 7 6 11 14 21 22 45 39 42 46 49
41 39 36 36 36 37 42 45 45 45 46 48 48 45 43 39 37 39 45 34 19 21 13 22 27 58 40 28 36 49 47 18 22 16 9 4 5 8 7 16 24 25 10 7 10 19 16 14 36 43 38 30 51 46
41 39 38 36 36 38 42 45 46 45 47 48 48 45 43 41 44 45 37 17 12 22 10 36 80 5 27 24 48 41 44 43 31 8 7 6 8 8 10 12 15 5 7 6 5 10 10 20 39 34 31 43 43 42
43 39 39 35 36 39 44 44 47 45 48 46 45 44 43 43 39 27 10 20 12 29 13 9 30 46 13 10 31 48 43 34 27 9 8 10 16 10 8 7 8 43 39 14 6 12 17 47 33 39 19 44 33 32
45 36 40 33 35 39 41 44 45 45 46 44 41 43 43 33 24 6 9 5 11 10 8 13 14 18 38 16 23 37 41 27 22 9 11 9 17 16 8 14 19 42 30 10 5 13 19 42 38 17 34 33 27 25
45 39 37 31 33 37 39 44 44 44 44 39 37 34 31 15 8 8 10 13 24 19 9 6 10 16 33 9 2 8 17 28 19 10 8 9 10 15 8 20 23 34 16 15 14 15 22 39 25 14 40 25 30 28
45 40 36 30 30 35 39 43 43 43 41 35 25 31 19 5 4 8 16 12 10 12 7 6 6 8 21 10 14 5 16 6 9 6 8 9 7 9 10 6 13 19 17 22 18 30 37 35 30 18 40 30 33 33
44 40 35 28 29 35 37 39 40 41 38 25 15 5 3 6 11 23 5 2 5 5 5 7 11 9 29 22 7 11 10 4 5 11 11 8 7 23 20 17 16 4 17 20 26 30 33 38 31 23 30 27 26 28
42 39 31 27 28 33 35 33 33 37 31 15 9 7 14 9 8 8 10 9 8 4 7 11 16 11 17 8 6 9 6 6 4 2 5 5 2 9 7 5 4 13 19 21 16 25 28 32 27 32 21 27 31 32
41 36 26 26 29 30 30 27 27 26 21 19 12 10 11 5 8 6 5 4 1 2 7 9 13 13 13 12 8 10 7 5 6 8 6 2 15 45 35 22 14 15 17 21 16 26 32 32 28 31 19 25 31 30
41 32 29 28 27 27 24 19 20 20 12 2 5 3 5 7 1 5 6 3 5 5 11 31 14 7 6 6 9 5 8 7 28 4 6 5 37 44 10 16 15 12 17 21 22 25 28 31 30 33 31 27 22 27
42 35 32 28 24 24 15 14 16 9 2 4 9 6 6 6 4 5 11 9 7 23 33 37 24 11 7 4 4 7 8 7 7 7 2 6 49 29 2 8 7 13 20 24 25 26 27 30 31 27 35 34 31 32
42 35 32 24 21 16 9 10 9 5 3 7 6 4 6 14 24 27 29 32 22 33 39 30 34 22 6 4 4 6 6 6 10 9 10 36 53 50 33 13 10 14 18 19 20 22 25 26 26 30 30 33 40 41
37 32 26 18 16 8 7 5 8 7 4 6 9 8 16 14 17 23 26 29 32 26 30 26 6 11 7 6 3 9 10 9 7 12 34 46 60 51 35 29 37 15 14 21 19 21 19 23 23 27 35 37 33 42
34 27 17 14 7 4 7 13 7 6 6 5 12 19 14 14 16 21 17 22 26 29 3 8 10 2 8 5 8 9 9 8 35 52 51 57 59 60 48 46 31 17 7 11 20 15 15 15 18 18 24 35 41 36
30 21 16 9 12 12 13 9 5 7 11 20 17 8 11 11 14 24 27 31 27 22 28 10 7 1 8 8 6 12 43 44 45 51 60 57 50 65 57 53 42 24 11 4 9 10 10 11 11 23 21 26 34 37
30 23 14 15 21 14 10 8 8 8 19 10 10 6 8 11 12 17 20 23 20 10 9 15 12 7 6 9 25 40 48 45 52 57 56 53 56 62 67 55 52 38 19 10 9 7 13 15 15 22 22 22 22 23
26 25 15 16 25 10 7 6 10 8 8 3 6 8 6 5 18 22 24 23 22 15 16 8 6 12 17 33 38 41 39 48 54 57 56 60 56 57 50 56 52 34 23 12 6 5 8 20 18 15 15 20 19 21
29 22 17 19 22 11 7 6 14 11 7 7 8 4 2 19 21 23 23 20 20 10 7 7 14 19 24 26 31 35 39 48 47 43 48 55 49 51 56 53 56 53 49 21 12 13 11 18 11 18 22 17 17 24
21 20 19 20 9 11 9 11 7 2 6 12 10 12 8 9 12 14 14 14 10 7 6 12 20 22 24 26 31 35 43 52 47 46 45 40 31 49 47 45 58 56 42 28 19 19 9 5 9 21 17 7 20 27
28 22 12 12 9 13 12 12 11 13 8 8 5 6 8 8 10 18 8 8 7 9 10 14 17 16 17 22 27 36 49 51 52 46 41 37 33 33 33 31 43 49 46 36 30 32 16 14 11 22 13 6 19 23
23 13 9 12 16 8 10 15 7 2 3 4 3 7 4 10 14 8 5 7 7 6 11 15 17 20 20 25 30 40 52 54 47 48 46 37 38 44 36 30 25 29 32 41 23 20 20 11 12 24 17 11 13 26
9 11 8 10 16 11 11 12 14 6 9 8 9 4 8 11 5 3 7 10 6 7 10 14 16 20 26 31 32 39 44 52 49 43 46 41 39 44 42 39 37 38 35 26 17 17 12 10 20 16 20 28 16 27
8 13 14 18 9 10 12 11 16 10 8 9 10 7 6 8 5 6 5 10 6 6 9 13 16 21 24 27 33 40 43 44 51 41 36 42 44 44 49 50 51 50 48 35 25 20 15 13 9 34 22 25 30 24
8 12 15 18 17 22 9 16 22 9 9 9 7 8 5 8 5 7 16 7 7 5 6 9 11 17 21 22 25 28 31 33 35 38 25 29 38 48 47 51 52 49 47 41 34 25 19 18 9 8 28 27 27 41
14 10 16 28 21 27 6 6 8 11 9 11 10 8 9 4 5 12 12 16 10 7 6 7 11 14 16 17 21 27 34 41 43 35 25 32 39 51 50 52 46 42 42 43 34 32 25 25 25 17 15 49 33 41
14 20 19 17 7 4 11 8 12 15 8 19 7 6 8 9 23 21 16 15 10 9 8 9 11 14 14 16 22 27 32 44 53 56 57 57 62 64 60 59 59 53 47 47 41 28 27 29 25 33 29 31 49 38
13 22 12 18 11 8 11 18 21 22 23 26 29 41 38 32 22 17 15 10 10 11 9 8 9 13 17 22 22 26 29 34 43 47 51 49 50 53 55 56 59 60 54 49 49 40 17 13 20 23 30 31 46 38
13 30 22 16 17 21 26 30 28 35 39 40 36 45 39 27 21 18 18 13 10 10 8 8 8 13 15 19 23 27 33 29 35 43 48 41 41 44 48 50 51 56 55 54 52 52 43 25 14 8 19 25 28 38
22 28 27 9 15 31 32 34 33 34 37 44 46 45 32 19 10 8 5 11 11 11 12 10 8 9 11 13 14 17 22 28 35 43 47 39 40 41 43 44 45 48 50 51 53 53 51 45 36 24 11 7 22 30
29 30 31 26 19 22 18 15 6 12 32 25 29 31 17 14 9 10 9 4 9 11 9 7 7 9 9 8 11 11 18 21 27 35 35 29 33 37 38 40 40 41 43 46 49 52 54 52 43 38 34 24 11 6
Wind_Direction_850mb
288 297 308 314 316 319 327 330 329 332 335 336 336 336 332 331 337 332 323 230 273 277 282 281 288 283 298 290 269 304 331 6 303 309 314 323 326 312 329 332 259 192 242 233 226 244 278 198 341 252 315 302 296 307
285 294 303 310 313 316 326 328 325 329 333 332 332 334 332 329 327 319 313 290 271 275 263 287 290 284 266 256 259 254 239 345 291 309 14 314 327 294 330 285 318 291 196 241 225 234 254 319 284 298 302 299 303 304
281 288 296 305 310 315 324 325 322 325 329 328 328 330 328 322 315 303 294 311 325 292 302 280 283 325 285 251 254 236 239 226 225 250 286 279 274 347 289 268 287 297 150 219 209 250 246 299 304 309 309 295 318 311
276 284 291 297 307 314 321 324 320 324 327 326 325 326 326 321 317 310 303 302 267 282 288 287 302 296 273 266 236 226 233 218 230 271 277 246 252 244 263 284 284 267 173 232 239 260 302 254 319 324 317 315 322 319
272 280 285 291 303 312 319 322 318 322 325 325 323 323 324 320 317 316 323 345 224 235 292 297 311 346 297 298 213 216 226 235 247 221 224 252 246 276 245 257 258 68 299 237 257 157 248 319 340 341 321 337 326 326
267 273 280 286 300 312 317 321 317 322 324 323 322 320 319 318 318 333 327 26 233 244 275 306 297 300 350 256 221 212 224 228 222 207 215 237 240 250 268 278 277 16 313 286 35 352 339 340 340 337 332 337 334 334
262 267 272 283 296 311 315 318 317 323 323 323 321 316 317 317 313 243 251 276 331 295 278 294 285 298 330 208 206 219 213 211 213 219 222 240 259 244 252 256 276 310 289 277 86 1 348 347 336 336 358 345 347 344
263 265 268 277 292 308 315 316 320 325 324 323 318 316 321 336 5 360 9 296 278 275 271 285 281 286 12 331 359 258 204 197 211 233 227 230 257 221 255 261 283 288 281 135 84 16 348 335 343 17 359 355 355 3
258 261 263 271 291 306 316 315 324 326 325 326 315 306 291 211 254 290 295 306 270 236 293 269 296 297 346 332 289 236 185 195 221 222 224 212 223 229 232 20 314 329 61 131 52 15 7 355 7 17 12 6 4 5
253 253 255 269 290 305 316 319 327 325 328 333 347 349 157 141 340 324 335 195 217 214 246 277 277 276 312 304 294 328 192 220 232 219 198 211 248 279 251 263 216 81 77 40 40 12 355 6 9 26 17 10 7 10
247 248 250 268 289 304 312 321 327 328 335 8 346 308 314 282 271 245 210 199 172 227 221 250 259 280 291 295 290 260 269 217 258 124 244 225 169 267 194 161 4 77 71 55 45 30 28 15 20 9 21 21 25 29
245 241 249 269 286 302 309 322 325 333 340 326 324 336 1 311 254 286 254 148 238 196 228 260 280 294 288 312 305 310 272 288 264 190 237 46 345 337 328 160 107 93 72 52 62 38 30 31 28 14 26 19 24 35
238 231 248 263 282 297 304 315 321 328 339 9 17 290 242 261 307 257 321 208 312 344 322 306 292 268 320 316 287 302 279 264 323 245 51 339 310 318 354 120 119 88 79 55 76 48 40 36 24 27 36 19 24 36
225 231 248 259 277 286 296 308 314 320 188 254 225 288 229 196 240 315 11 68 353 333 329 316 316 268 208 220 315 287 300 303 303 10 30 307 355 5 276 133 347 79 71 69 79 59 47 48 43 29 27 36 41 42
224 235 246 258 274 272 286 303 306 194 99 269 279 249 233 351 342 3 351 355 18 347 323 315 299 267 176 148 194 291 290 311 23 357 332 2 354 12 347 334 83 13 113 74 70 68 56 55 56 46 32 36 55 51
223 236 246 255 245 245 268 231 146 94 269 257 229 269 291 337 352 359 358 339 347 333 324 307 307 342 42 336 259 14 4 31 347 308 356 9 15 19 35 356 342 354 117 107 81 81 61 64 71 58 44 42 61 65
221 225 231 217 198 190 160 138 130 226 268 252 239 253 285 350 348 330 347 342 344 343 339 302 12 125 305 20 25 16 336 312 328 340 346 5 10 6 2 4 359 349 41 86 101 95 86 63 85 71 59 56 50 68
210 214 197 176 175 145 146 164 219 217 236 235 254 296 352 320 339 24 10 1 358 348 336 351 263 94 25 22 353 319 318 339 345 345 340 348 358 3 4 10 0 355 304 194 107 92 100 96 79 82 75 71 58 57
203 191 178 182 169 157 192 210 218 259 224 286 275 295 322 3 42 39 9 347 345 321 343 15 45 41 2 329 317 316 327 348 340 334 333 346 351 353 358 3 13 351 319 206 132 120 84 105 91 108 99 95 97 66
187 177 164 172 172 169 203 200 198 256 261 310 257 269 353 19 72 47 29 19 43 53 50 50 31 327 307 323 329 327 349 347 342 335 334 334 338 350 354 351 357 360 346 312 150 177 101 112 126 107 93 95 99 86
182 193 194 184 193 205 255 210 203 218 261 265 288 291 168 89 77 61 40 54 54 47 82 52 346 335 338 353 350 352 346 346 342 336 327 324 322 342 346 353 359 7 14 10 262 303 3 177 124 127 136 123 126 115
156 159 153 165 185 207 252 233 248 92 180 246 251 245 126 120 127 114 83 61 72 68 72 9 352 348 353 359 355 356 350 346 346 349 351 350 344 348 346 350 359 358 2 359 328 334 300 111 144 166 179 127 130 136
153 168 160 194 217 203 252 206 197 206 215 195 188 300 144 138 125 117 95 98 103 64 8 353 358 356 356 353 357 357 358 2 3 10 8 10 8 3 0 3 -0 360 11 15 353 349 309 225 193 200 193 150 146 144
145 166 202 202 199 223 210 191 214 357 258 201 231 223 160 126 146 102 96 99 103 34 8 8 7 7 9 4 3 357 0 6 9 21 12 6 6 5 3 358 348 343 346 357 18 359 318 231 247 191 212 191 162 160
168 208 198 227 202 218 202 191 156 216 217 170 201 203 167 140 76 53 124 120 101 46 15 9 9 7 6 4 0 360 3 6 5 12 15 23 14 8 16 22 24 18 5 348 354 6 1 316 218 207 209 210 199 172
206 210 199 199 223 203 205 178 190 164 190 194 205 204 115 108 128 127 87 132 112 48 26 12 10 5 3 0 359 2 5 1 0 16 17 8 18 13 12 13 10 5 5 358 340 316 320 338 295 238 228 204 215 191
228 222 208 221 214 209 204 181 157 158 198 182 190 151 150 143 136 101 146 160 130 74 39 12 6 0 357 360 1 357 354 2 9 3 8 22 18 18 23 13 4 356 358 355 343 328 293 284 306 230 224 226 218 204
233 237 216 218 223 210 192 138 165 172 187 213 162 141 137 100 97 147 157 135 132 108 59 30 18 6 4 5 3 359 355 359 11 21 33 32 26 19 22 17 8 3 1 0 350 338 312 271 250 218 199 228 224 203
226 222 226 196 190 147 185 173 200 202 186 147 127 82 90 92 131 128 139 141 126 103 70 41 20 22 20 13 9 9 4 355 3 13 16 11 10 10 11 11 8 9 4 1 2 343 320 292 261 236 236 224 214 206
240 206 206 184 147 194 182 190 231 128 139 125 107 105 102 112 113 126 122 114 96 84 66 53 34 23 16 16 12 11 15 356 354 7 6 3 358 359 5 4 5 6 8 6 7 4 338 297 253 241 232 231 217 217
216 199 198 190 189 190 197 201 136 125 114 115 130 129 135 125 115 104 96 86 116 97 78 70 49 30 16 14 12 9 3 359 344 348 351 354 0 4 7 5 4 7 10 13 15 17 15 6 351 274 231 232 233 232
223 215 189 187 195 207 226 163 137 129 124 116 119 129 133 140 121 120 102 121 109 81 64 50 27 5 12 7 4 8 3 343 345 346 342 350 358 2 6 5 5 8 13 19 22 25 26 26 25 18 356 269 230 224
217 210 190 204 197 164 148 131 83 118 135 133 153 160 154 138 116 141 134 67 129 122 85 45 21 355 14 359 345 352 359 357 339 334 343 358 359 357 1 8 5 8 14 22 27 30 33 36 39 38 37 30 12 247